TimeEDT,TemperatureF,Dew PointF,Humidity,Sea Level PressureIn,VisibilityMPH,Wind Direction,Wind SpeedMPH,Gust SpeedMPH,PrecipitationIn,Events,Conditions,WindDirDegrees,DateUTC
12:53 AM,64.0,61.0,90,30.12,9.0,Calm,Calm,-,N/A,,Clear,0,2013-10-03 04:53:00
1:53 AM,63.0,60.1,90,30.12,9.0,Calm,Calm,-,N/A,,Clear,0,2013-10-03 05:53:00
2:53 AM,63.0,60.1,90,30.10,9.0,Calm,Calm,-,N/A,,Clear,0,2013-10-03 06:53:00
3:53 AM,64.0,61.0,90,30.09,8.0,Calm,Calm,-,N/A,,Clear,0,2013-10-03 07:53:00
4:53 AM,62.1,59.0,90,30.09,8.0,Calm,Calm,-,N/A,,Clear,0,2013-10-03 08:53:00
5:53 AM,62.1,59.0,90,30.09,8.0,Calm,Calm,-,N/A,,Scattered Clouds,0,2013-10-03 09:53:00
6:53 AM,62.1,59.0,90,30.10,7.0,Calm,Calm,-,N/A,,Mostly Cloudy,0,2013-10-03 10:53:00
7:53 AM,63.0,60.1,90,30.11,6.0,Calm,Calm,-,N/A,,Mostly Cloudy,0,2013-10-03 11:53:00
8:53 AM,68.0,62.1,81,30.12,9.0,North,6.9,-,N/A,,Overcast,10,2013-10-03 12:53:00
9:53 AM,73.9,64.0,71,30.14,10.0,NNE,5.8,-,N/A,,Overcast,30,2013-10-03 13:53:00
10:53 AM,79.0,64.0,60,30.14,10.0,NNE,5.8,-,N/A,,Mostly Cloudy,30,2013-10-03 14:53:00
11:53 AM,82.0,64.9,56,30.14,10.0,NE,6.9,-,N/A,,Mostly Cloudy,40,2013-10-03 15:53:00
12:53 PM,82.9,64.9,54,30.13,10.0,Variable,4.6,-,N/A,,Mostly Cloudy,0,2013-10-03 16:53:00
1:53 PM,84.0,64.9,53,30.11,10.0,SSE,8.1,-,N/A,,Mostly Cloudy,150,2013-10-03 17:53:00
2:53 PM,84.0,64.0,51,30.09,10.0,ESE,6.9,-,N/A,,Mostly Cloudy,120,2013-10-03 18:53:00
3:53 PM,82.9,66.0,56,30.07,10.0,SSE,5.8,-,N/A,,Mostly Cloudy,150,2013-10-03 19:53:00
4:53 PM,84.0,66.0,55,30.06,10.0,SE,5.8,-,N/A,,Mostly Cloudy,140,2013-10-03 20:53:00
5:53 PM,82.0,66.9,60,30.07,10.0,East,9.2,-,N/A,,Mostly Cloudy,100,2013-10-03 21:53:00
6:53 PM,79.0,68.0,69,30.07,10.0,East,8.1,-,N/A,,Mostly Cloudy,100,2013-10-03 22:53:00
7:53 PM,75.9,70.0,82,30.09,10.0,East,8.1,-,N/A,,Mostly Cloudy,100,2013-10-03 23:53:00
8:53 PM,75.0,70.0,84,30.10,10.0,East,5.8,-,N/A,,Mostly Cloudy,90,2013-10-04 00:53:00
9:53 PM,75.0,70.0,84,30.11,10.0,East,4.6,-,N/A,,Mostly Cloudy,80,2013-10-04 01:53:00
10:53 PM,73.9,70.0,87,30.11,10.0,East,3.5,-,N/A,,Scattered Clouds,80,2013-10-04 02:53:00